Temp
5 6 7 5 5 5 5 5 5 6 5 6 7 9 9 8 8 9 9 8 7 7 7 6 6 5 4 3 2 3 2 2 2 0 0 -0 -0 -1 -1 -1 -1 -1 -1 -1
5 6 5 5 4 4 4 5 5 5 5 5 7 9 9 10 10 10 10 9 8 7 7 6 6 5 4 3 3 3 2 2 1 0 -0 -1 -1 -4 -4 -2 -1 -0 -0 -1
5 5 5 5 4 4 4 4 4 4 4 5 6 9 10 10 10 10 10 9 8 7 7 6 6 5 4 3 3 4 3 2 1 1 0 -1 -1 -1 -2 -1 -1 -0 0 -1
4 4 4 4 3 3 2 3 4 4 3 4 5 3 10 9 10 10 9 8 8 7 7 6 5 5 4 3 4 4 3 2 2 1 0 -0 0 0 -0 -1 -1 -0 -1 -1
4 4 4 3 3 2 2 3 3 3 3 2 4 3 9 9 9 9 9 8 7 7 7 6 5 5 4 4 4 4 2 2 1 1 0 -0 -1 0 -0 -0 -1 -1 -2 -2
2 3 3 3 2 2 2 2 2 3 1 -1 1 2 9 8 9 9 8 8 7 7 6 6 6 5 4 4 4 4 2 2 1 1 1 0 -0 -0 -1 -1 -1 -1 -2 -1
1 1 2 2 2 1 1 2 1 -1 -3 -1 1 1 9 8 8 8 8 7 7 6 6 6 6 5 4 4 5 4 2 2 1 1 1 -0 -1 0 -0 -1 -1 -1 -1 -1
1 1 2 2 2 2 1 1 2 -1 -2 -1 2 2 9 8 8 8 7 7 6 6 6 5 6 5 5 4 5 4 2 2 2 2 1 1 -1 -0 0 -1 -1 -1 -1 -1
2 1 2 1 1 1 0 0 2 2 -1 -2 4 6 9 8 8 8 7 6 6 6 6 5 5 5 5 5 5 5 3 2 2 2 1 1 1 -1 -0 0 -0 -1 -1 -1
2 1 0 0 0 0 0 1 1 1 -4 -2 2 4 8 8 8 8 7 6 6 6 5 5 5 5 5 5 5 6 4 2 2 2 1 1 1 -0 -1 -0 0 -0 -0 -1
1 1 -1 -1 1 2 0 -0 1 1 1 -1 -1 6 8 8 8 7 7 6 6 6 5 5 5 4 5 5 5 6 5 3 1 2 1 1 1 1 -1 -1 -1 -1 0 0
1 1 1 0 1 1 0 1 1 2 0 1 -0 4 7 8 7 7 6 6 6 5 5 4 4 4 4 5 5 5 5 5 2 2 2 1 0 1 0 -1 -1 -1 -1 -1
1 -0 0 -1 -1 -0 0 2 1 1 1 1 -1 4 7 7 7 6 6 5 5 4 4 4 4 4 3 4 5 5 5 5 3 2 1 -1 -3 -1 0 1 -2 -2 -2 -2
1 1 2 1 3 2 1 2 1 0 -0 1 2 5 6 6 6 6 5 5 4 4 4 4 4 3 3 3 4 4 5 5 4 2 1 0 -1 -2 -1 -0 -1 -1 -1 -2
0 0 1 1 2 2 1 1 1 0 2 1 3 3 7 5 4 4 4 5 4 4 4 3 3 3 3 2 3 3 4 5 4 2 1 0 -0 -1 -0 -0 0 -0 -1 -1
-0 -0 0 1 0 -0 -0 0 -1 0 1 1 1 5 5 5 4 4 4 4 4 3 4 4 3 3 3 2 2 2 3 4 4 3 2 1 0 0 0 0 0 -0 -0 -0
-1 -1 -1 -1 -0 -1 -1 1 2 2 3 3 2 8 5 5 4 3 3 4 3 4 5 4 4 3 2 2 2 2 2 3 3 2 2 1 1 0 0 -0 -0 -0 -0 -0
-3 -2 -2 -2 -2 -3 1 1 3 3 4 3 4 7 5 4 4 4 4 4 5 3 5 5 4 4 3 2 2 1 2 2 3 2 2 2 1 1 -0 -0 -1 -1 -1 -1
-2 -2 -3 -3 -4 1 1 2 4 4 5 4 4 5 5 4 4 3 4 5 5 5 4 4 3 3 2 2 2 1 2 2 2 3 2 1 1 1 1 -0 -1 -1 -1 -1
-3 -3 -3 -4 -4 -6 0 2 3 3 3 6 5 4 4 3 4 3 4 5 5 5 5 5 4 3 3 2 2 1 2 2 2 2 2 1 1 1 1 0 -0 -1 -1 -1
-5 -4 -4 -4 -3 -1 0 2 2 1 4 5 4 3 2 2 3 3 3 3 4 5 4 5 4 4 3 2 2 2 2 2 1 1 1 1 1 0 0 0 -0 -0 -1 -1
-3 -5 -5 -5 -4 -3 -1 -0 1 3 3 3 3 2 2 2 2 2 3 3 3 4 4 4 4 4 4 3 2 2 2 1 1 1 0 0 0 0 0 0 -0 -0 -1 -1
-5 -3 -3 -3 -1 1 0 2 2 2 1 2 1 1 1 1 1 2 3 3 3 3 3 4 4 3 3 3 3 3 2 1 0 0 0 0 -0 -0 -0 -0 -0 -0 -1 -1
-4 -3 -3 -3 -1 -0 -0 0 2 1 0 1 0 0 1 2 1 1 2 2 2 3 2 3 4 4 3 3 3 3 2 1 0 -0 -0 -0 -0 -1 -1 -1 -1 -1 -1 -1
-4 -3 -3 -3 -2 -1 -1 -1 0 0 -2 -2 -1 -1 0 1 1 2 2 1 1 2 2 2 3 3 3 3 3 2 1 1 0 -0 -1 -1 -1 -1 -1 -1 -1 -1 -1 -1
-5 -4 -4 -2 -1 -2 -2 -2 -2 -4 -2 -2 -2 -1 -0 -0 0 1 1 1 0 0 1 2 2 2 2 2 3 2 1 1 -0 -1 -1 -1 -1 -1 -1 -1 -2 -1 -2 -2
Height
3099 3099 3099 3100 3100 3100 3099 3097 3095 3095 3092 3088 3086 3080 3081 3080 3076 3077 3078 3078 3078 3077 3075 3073 3070 3066 3062 3054 3047 3039 3030 3022 3013 3006 3000 2994 2987 2980 2974 2969 2969 2972 2980 2986
3096 3094 3097 3096 3097 3096 3095 3094 3092 3092 3089 3087 3081 3075 3073 3071 3071 3071 3073 3074 3074 3074 3073 3070 3068 3064 3059 3052 3044 3036 3028 3019 3010 3002 2995 2989 2984 2978 2973 2967 2967 2971 2978 2984
3091 3092 3092 3092 3092 3093 3092 3091 3090 3090 3087 3084 3077 3069 3067 3068 3067 3068 3069 3071 3071 3071 3070 3068 3065 3062 3057 3050 3043 3034 3024 3015 3008 3001 2996 2991 2986 2979 2976 2972 2971 2973 2978 2985
3087 3086 3087 3088 3088 3090 3089 3088 3087 3086 3086 3083 3080 3074 3066 3065 3064 3065 3067 3069 3069 3068 3067 3065 3063 3061 3056 3049 3041 3032 3023 3015 3009 3002 2997 2992 2987 2984 2981 2977 2975 2976 2980 2988
3082 3081 3082 3082 3084 3086 3087 3085 3085 3084 3083 3081 3077 3077 3061 3062 3063 3064 3066 3067 3067 3066 3065 3063 3061 3058 3054 3047 3040 3030 3021 3015 3010 3004 2999 2994 2990 2989 2985 2982 2980 2982 2987 2995
3076 3077 3079 3079 3080 3082 3083 3084 3083 3082 3082 3080 3074 3075 3061 3061 3062 3063 3064 3065 3065 3063 3062 3061 3058 3056 3052 3046 3039 3030 3024 3017 3012 3006 3001 2996 2994 2993 2990 2988 2988 2990 2995 2999
3070 3071 3073 3075 3077 3078 3080 3082 3082 3084 3083 3077 3073 3073 3058 3060 3061 3062 3062 3063 3062 3061 3060 3058 3055 3053 3051 3046 3040 3032 3025 3018 3014 3008 3004 3000 2997 2997 2996 2996 2996 2999 3001 3006
3064 3067 3067 3069 3072 3075 3076 3079 3078 3083 3081 3075 3072 3063 3056 3057 3058 3060 3061 3061 3061 3060 3059 3057 3053 3052 3050 3045 3039 3033 3027 3021 3017 3012 3009 3006 3003 3002 3001 3002 3004 3006 3008 3010
3059 3061 3060 3063 3066 3072 3073 3075 3076 3076 3076 3076 3065 3058 3056 3054 3056 3058 3059 3060 3059 3059 3057 3056 3052 3050 3048 3044 3040 3035 3029 3023 3019 3015 3011 3010 3008 3006 3005 3006 3009 3012 3014 3017
3056 3058 3058 3060 3063 3066 3068 3072 3074 3074 3079 3079 3061 3056 3051 3052 3052 3055 3057 3058 3058 3057 3056 3055 3052 3049 3046 3044 3041 3036 3030 3025 3021 3017 3014 3012 3012 3010 3010 3009 3013 3015 3015 3020
3052 3054 3057 3058 3056 3058 3063 3065 3067 3068 3068 3068 3068 3052 3051 3051 3052 3054 3055 3056 3056 3055 3055 3053 3051 3048 3045 3043 3041 3038 3032 3027 3022 3020 3017 3015 3014 3014 3015 3013 3015 3017 3019 3022
3046 3049 3051 3054 3053 3053 3056 3059 3062 3062 3063 3062 3061 3050 3049 3050 3050 3052 3053 3054 3054 3054 3053 3052 3050 3048 3044 3042 3042 3039 3035 3029 3024 3022 3020 3018 3018 3018 3019 3019 3020 3021 3020 3022
3038 3042 3047 3050 3053 3049 3048 3051 3054 3057 3057 3055 3056 3047 3045 3046 3046 3048 3050 3052 3052 3051 3050 3050 3049 3047 3044 3042 3041 3041 3037 3033 3028 3024 3022 3021 3022 3022 3023 3022 3022 3024 3026 3027
3034 3033 3036 3039 3039 3040 3041 3044 3047 3051 3051 3048 3043 3041 3044 3045 3046 3047 3047 3047 3047 3047 3048 3047 3047 3045 3044 3041 3040 3042 3040 3038 3034 3029 3026 3024 3025 3026 3027 3027 3028 3030 3033 3036
3028 3027 3031 3034 3035 3036 3036 3038 3041 3040 3041 3040 3037 3035 3030 3041 3043 3044 3042 3040 3040 3042 3042 3043 3043 3043 3042 3041 3040 3041 3042 3040 3038 3036 3032 3030 3030 3033 3035 3037 3038 3039 3040 3042
3020 3022 3025 3027 3030 3031 3030 3031 3032 3033 3033 3031 3032 3021 3027 3029 3031 3033 3035 3034 3032 3033 3034 3035 3037 3038 3040 3039 3038 3038 3040 3041 3040 3040 3039 3037 3036 3037 3040 3042 3044 3045 3046 3048
3014 3015 3019 3022 3026 3028 3022 3014 3021 3020 3021 3025 3024 3014 3022 3023 3025 3025 3023 3021 3019 3023 3026 3028 3031 3033 3035 3036 3036 3037 3037 3039 3040 3041 3042 3042 3043 3041 3042 3043 3045 3047 3050 3051
3004 3008 3015 3015 3020 3021 3005 3006 3009 3009 3012 3013 3014 3013 3017 3016 3015 3013 3014 3014 3013 3015 3017 3021 3024 3026 3029 3031 3032 3032 3033 3035 3037 3039 3041 3043 3044 3045 3045 3044 3046 3048 3051 3052
2995 3000 3006 3009 3009 3001 2998 3001 3003 3001 3004 3006 3008 3010 3011 3009 3008 3010 3009 3008 3007 3008 3010 3012 3016 3020 3021 3024 3027 3028 3029 3031 3032 3035 3038 3040 3043 3045 3046 3047 3047 3049 3051 3053
2986 2992 2999 3001 3001 2999 2990 2993 3000 3000 2994 3001 3003 3004 3005 3005 3005 3004 3004 3003 3001 3001 3003 3006 3006 3009 3011 3015 3018 3020 3023 3026 3029 3031 3035 3037 3039 3042 3044 3046 3048 3049 3050 3052
2975 2979 2983 2990 2992 2985 2987 2990 2992 2997 2995 2993 2996 2998 3000 3001 3002 3000 2999 2999 2999 2997 2998 2998 3000 3001 3004 3008 3010 3013 3016 3018 3026 3028 3029 3031 3035 3038 3040 3043 3045 3047 3049 3050
2964 2970 2974 2983 2987 2982 2979 2984 2988 2991 2989 2991 2991 2993 2993 2995 2995 2995 2995 2994 2994 2994 2993 2992 2993 2997 2997 2999 3002 3006 3009 3016 3018 3021 3023 3026 3029 3031 3035 3037 3039 3042 3044 3046
2956 2954 2960 2967 2965 2970 2972 2976 2980 2982 2985 2986 2987 2986 2985 2986 2988 2989 2989 2989 2988 2988 2987 2987 2987 2989 2990 2992 2994 2999 3005 3008 3011 3012 3015 3019 3023 3025 3027 3030 3034 3036 3039 3041
2946 2949 2955 2960 2960 2963 2968 2973 2975 2974 2978 2980 2980 2979 2978 2978 2978 2980 2981 2982 2983 2982 2982 2982 2982 2982 2984 2986 2988 2992 2996 3000 3003 3005 3007 3010 3013 3017 3020 3023 3025 3028 3032 3035
2940 2943 2947 2949 2952 2956 2958 2965 2973 2969 2969 2972 2972 2971 2972 2971 2973 2972 2973 2973 2974 2975 2976 2976 2977 2977 2978 2978 2981 2984 2987 2990 2993 2996 2998 3001 3004 3008 3011 3015 3019 3022 3025 3028
2929 2933 2937 2939 2947 2948 2954 2961 2962 2958 2962 2964 2963 2964 2965 2964 2965 2965 2967 2967 2967 2968 2968 2970 2971 2971 2972 2972 2972 2974 2978 2981 2984 2986 2989 2992 2994 2997 3001 3005 3009 3012 3015 3018
Wind_Speed
18 18 18 12 14 17 17 16 17 16 19 24 24 26 16 20 27 22 17 18 19 15 16 21 25 29 31 34 35 37 38 36 32 29 24 23 25 23 21 21 19 19 21 23
20 22 17 18 18 18 17 18 18 18 16 20 25 28 24 22 21 19 16 17 15 11 15 20 24 29 31 33 35 37 37 33 31 26 24 27 25 20 24 13 12 15 16 20
23 19 14 16 17 18 18 18 16 17 19 21 24 23 7 4 5 8 10 9 7 8 13 19 24 27 29 32 35 37 36 30 27 20 22 22 21 19 12 6 4 9 12 23
20 25 25 22 19 17 18 15 14 15 12 7 16 9 21 17 12 9 8 5 4 8 13 18 22 26 28 31 34 37 33 26 23 20 20 19 19 16 14 11 6 10 17 25
14 15 14 19 19 17 13 11 11 13 14 15 12 6 6 5 6 6 6 3 4 8 12 16 21 25 27 31 34 37 31 22 21 19 20 17 17 17 16 11 9 14 20 27
26 21 16 16 15 16 14 11 10 13 11 4 4 5 7 5 5 7 5 3 4 7 11 15 20 23 26 30 33 34 25 18 19 20 20 15 18 20 20 13 12 17 27 23
26 25 22 18 16 15 16 8 2 3 1 4 3 7 15 8 7 6 5 3 4 7 9 12 18 22 24 28 30 30 22 19 15 18 21 18 19 19 18 15 16 20 17 20
21 10 26 20 21 10 18 14 5 5 2 4 6 9 3 6 8 5 5 2 3 6 8 11 16 20 22 25 29 27 21 16 16 15 16 18 19 16 16 13 11 12 12 17
14 13 14 17 22 17 12 14 12 2 2 3 6 11 16 16 12 8 5 2 2 5 8 10 13 18 20 22 26 26 19 12 10 11 13 14 16 10 17 13 13 10 10 17
10 5 12 21 16 23 16 11 7 8 2 4 6 10 13 4 7 9 8 4 3 7 11 12 12 14 18 20 22 25 20 8 8 8 11 12 11 13 13 14 12 10 12 15
17 13 9 19 18 21 23 19 11 7 5 4 1 6 4 6 9 8 8 7 3 9 13 14 12 11 14 17 18 20 21 9 5 6 7 8 13 14 16 17 16 17 14 15
27 13 9 15 12 17 22 22 21 8 7 8 4 11 15 15 13 13 9 10 8 13 15 15 13 11 10 13 14 15 19 13 4 5 8 12 17 19 13 11 13 15 15 13
31 13 6 3 17 21 24 28 27 28 12 15 7 8 6 7 6 7 6 4 14 17 18 14 14 13 7 8 9 10 13 12 12 10 10 13 15 18 15 14 16 15 17 16
23 24 16 14 5 5 17 31 32 30 17 21 33 35 26 11 9 10 15 24 18 18 19 18 16 15 10 3 4 5 7 11 18 22 20 17 19 23 21 25 26 26 30 32
27 23 29 27 20 17 17 20 19 31 34 29 36 38 37 33 34 33 30 30 29 28 28 24 20 16 12 5 2 8 4 10 14 20 25 29 32 30 28 28 28 28 28 27
34 20 26 27 27 26 29 27 27 28 29 37 38 43 31 23 21 24 25 26 26 24 21 21 20 18 13 11 9 13 10 9 15 17 20 22 26 26 24 23 22 21 22 22
36 34 22 15 24 22 27 40 38 39 40 38 41 24 30 30 29 25 24 31 36 29 26 19 20 17 15 15 14 16 17 14 15 18 17 17 17 20 21 20 18 17 17 19
40 38 29 14 13 7 19 20 22 26 27 37 36 24 16 18 19 23 23 28 32 27 28 28 25 22 20 20 20 23 25 22 20 19 19 17 17 16 17 18 18 19 20 21
34 36 15 10 21 23 23 12 13 15 19 19 18 19 16 17 17 6 11 19 29 27 26 27 29 27 25 24 24 26 29 29 27 24 23 21 19 18 17 18 20 21 22 22
34 30 30 16 8 10 10 20 32 23 36 29 21 12 10 5 6 10 11 13 13 22 26 27 29 31 34 33 29 31 30 33 33 30 27 26 24 21 20 21 21 23 24 24
36 34 37 28 15 19 24 8 13 17 13 11 11 8 7 9 11 14 16 13 13 16 20 19 28 31 31 36 35 34 33 33 34 35 34 32 29 27 25 24 24 25 25 26
40 28 23 26 20 21 19 26 29 25 20 19 15 12 15 15 16 16 16 15 15 15 15 19 21 29 32 35 38 35 35 31 35 41 40 38 35 34 31 30 30 30 29 28
33 41 38 35 40 31 24 20 18 27 21 15 11 18 22 24 21 23 24 21 17 18 20 17 18 24 31 35 36 36 32 34 36 41 46 43 41 40 38 36 34 34 34 33
39 32 39 35 45 48 38 24 19 23 28 18 23 23 27 31 30 26 28 28 26 24 20 22 19 20 23 29 36 35 33 34 38 40 45 49 48 45 44 42 41 40 38 37
39 40 41 40 42 40 37 33 29 18 22 21 26 28 30 33 32 32 29 29 26 28 26 21 20 19 20 22 26 33 36 36 40 42 43 47 52 51 49 47 45 43 41 41
36 40 40 44 43 41 33 27 28 24 32 29 31 31 34 36 36 33 30 29 29 26 27 26 23 22 21 21 23 27 34 36 41 44 45 45 48 53 54 53 50 49 47 46
Wind_Direction
242 249 260 273 260 259 267 267 272 280 287 292 296 290 299 280 270 279 275 275 281 294 314 326 333 334 334 333 338 338 336 335 337 336 333 335 333 328 316 293 269 226 222 216
247 258 262 259 259 258 260 265 272 285 288 295 294 299 300 275 271 269 266 260 267 295 322 331 336 339 335 334 342 342 338 339 340 342 345 352 347 354 351 322 258 214 218 205
254 257 259 255 255 253 256 262 273 279 292 296 304 311 289 299 264 255 259 250 259 311 333 338 342 341 336 337 344 346 343 345 349 357 7 4 12 1 7 15 177 199 191 184
257 251 254 255 253 252 258 262 265 274 293 292 310 288 288 284 262 253 239 243 288 335 343 345 346 342 340 340 348 349 349 354 359 18 17 22 26 31 29 35 97 144 158 169
240 249 249 246 250 244 249 251 260 274 286 297 286 267 287 245 221 219 210 260 321 346 350 350 349 346 344 344 352 353 356 2 8 23 14 27 30 27 23 34 99 130 149 154
238 247 247 239 239 235 239 244 264 277 283 277 252 236 283 236 199 197 212 274 339 352 354 354 353 350 347 348 356 355 359 5 11 27 15 26 50 45 41 46 101 123 140 146
235 237 238 234 229 224 219 211 280 323 339 228 269 255 248 244 233 234 254 285 343 353 355 358 358 354 351 350 356 359 360 12 15 32 21 74 66 58 56 69 99 121 134 149
216 220 226 227 221 219 213 204 209 209 214 286 262 242 262 265 241 226 228 245 338 347 358 0 6 357 354 355 355 5 357 10 29 45 45 49 59 73 63 84 96 137 139 141
211 217 212 210 212 206 206 212 220 225 290 318 248 272 273 257 240 242 236 221 346 358 3 356 10 2 358 360 356 2 2 4 26 38 66 59 52 69 96 93 114 146 155 166
210 214 205 205 206 211 213 202 183 200 138 257 274 275 244 269 222 211 199 193 8 355 357 354 358 8 1 1 0 360 4 15 38 45 69 76 63 68 122 110 97 110 126 144
211 212 199 195 212 213 208 210 200 191 209 180 277 267 264 239 235 200 209 222 323 345 347 346 343 3 6 2 5 4 5 15 68 49 53 67 84 91 104 115 130 124 117 115
204 205 204 213 220 215 216 227 220 206 208 212 233 260 262 263 247 244 256 240 285 312 326 331 335 336 9 6 4 10 9 15 72 87 89 98 110 103 119 125 136 141 150 142
205 202 181 230 246 233 224 224 223 224 234 221 183 255 255 232 229 198 184 256 298 293 299 310 322 321 336 10 14 21 19 40 74 89 90 103 107 115 120 114 119 123 125 126
210 214 212 211 213 206 222 238 232 227 223 236 235 252 251 236 230 253 283 298 287 291 301 296 305 303 297 346 29 81 68 75 89 93 94 103 115 106 101 101 104 110 116 112
215 218 225 233 240 247 258 262 247 232 242 232 262 261 273 265 264 269 274 275 282 285 283 282 284 283 277 255 179 154 132 112 103 103 100 101 109 112 112 111 111 113 115 116
216 219 223 231 237 254 264 258 250 252 248 250 255 271 279 288 283 271 264 268 272 274 271 265 257 261 266 246 206 179 176 154 133 126 121 120 121 125 126 125 126 127 130 131
218 220 219 239 249 260 268 255 250 253 255 255 251 278 285 291 290 286 271 257 259 255 248 246 234 243 250 244 223 199 189 183 165 153 151 148 147 146 146 146 146 145 146 143
221 221 222 238 199 231 255 256 257 253 256 258 264 281 303 293 275 262 258 250 252 254 242 236 231 231 237 239 227 207 201 195 187 180 175 177 177 177 172 167 165 163 159 155
230 223 208 210 203 250 249 243 240 257 258 245 266 288 286 273 279 289 304 277 260 257 250 239 232 235 233 236 235 223 211 206 201 196 192 191 193 192 191 187 179 175 169 168
229 238 232 205 200 211 261 250 244 248 263 262 279 253 238 232 270 291 309 320 292 262 252 252 233 229 228 227 229 229 220 215 211 205 202 201 199 202 200 197 195 188 184 182
203 214 214 219 225 252 240 218 219 206 247 232 269 219 249 286 282 290 294 294 286 282 264 266 244 232 228 228 229 229 224 221 215 213 210 207 206 206 204 207 204 203 200 199
210 198 201 213 218 252 238 228 229 245 232 255 237 229 277 284 278 275 283 283 281 280 281 259 249 240 236 229 229 232 228 223 220 218 219 215 211 210 213 210 209 210 210 210
211 217 211 217 227 235 247 253 250 244 219 216 245 284 290 291 283 272 272 270 274 274 272 271 261 248 242 239 236 237 229 225 225 222 223 222 219 217 215 216 217 217 217 218
227 227 223 228 239 245 245 247 266 228 213 231 288 283 280 281 285 285 277 270 267 268 273 266 265 256 249 248 244 238 232 225 228 228 226 225 225 225 223 221 220 221 224 227
232 230 230 234 244 250 251 251 234 214 242 266 278 276 273 271 271 278 283 280 275 264 259 262 261 256 250 245 248 243 236 229 227 230 231 229 229 229 230 229 230 231 231 231
223 229 227 243 246 247 257 256 235 252 259 265 267 264 262 265 269 271 278 285 278 270 261 255 256 258 257 250 244 243 241 237 231 232 233 233 233 233 233 234 234 235 236 236